Location: Sedan
(39.2354°N, 78.5718°W)
Time: 13:32:13
(UTC+00:00)

Envisat - Pass Details

Date: 05 December 2021
Orbit: 764 x 766 km, 98.2° (Epoch: 19 January)

Event Time Altitude Azimuth Distance (km) Brightness Sun altitude
Rises 11:36:24 0° 354° (N) 3,240 6.0 -8.3°
Reaches altitude 10° 11:39:31 10° 334° (NNW) 2,309 5.0 -7.7°
Maximum altitude 11:42:35 16° 297° (WNW) 1,901 4.4 -7.1°
Drops below altitude 10° 11:45:38 10° 259° (W) 2,299 5.0 -6.6°
Sets 11:48:44 0° 239° (WSW) 3,220 5.9 -6.1°
